Weather reports worldwide

Advertisment
Hereford/Credenhill, United Kingdom (3522): temperature & dewpoint: 06.12.2018 13:00:00 - 12.12.2018 13:00:00 (GMT)Hereford/Credenhill, United Kingdom (3522): temperature -20cm & temperature -100cm: 06.12.2018 13:00:00 - 12.12.2018 13:00:00 (GMT)Hereford/Credenhill, United Kingdom (3522): wind speed & gusts: 06.12.2018 13:00:00 - 12.12.2018 13:00:00 (GMT)Hereford/Credenhill, United Kingdom (3522): wind direction: 06.12.2018 13:00:00 - 12.12.2018 13:00:00 (GMT)Hereford/Credenhill, United Kingdom (3522): reduced air pressure: 06.12.2018 13:00:00 - 12.12.2018 13:00:00 (GMT)Hereford/Credenhill, United Kingdom (3522): visibility: 06.12.2018 13:00:00 - 12.12.2018 13:00:00 (GMT)Hereford/Credenhill, United Kingdom (3522): precipitation: 06.12.2018 13:00:00 - 12.12.2018 13:00:00 (GMT)
Date & Time tt [°C] td [°C] tt -20cm [°C] tt -100cm [°C] ff [km/h] ff [kn] fx [km/h] fx [kn] dd ppp [hPa] vv [km] rr [mm]
12.12.2018 13:00:00 7,7 4,2 - - 11 6 - - SE 1019,9 35 0,0
12.12.2018 12:00:00 7,2 4,6 - - 11 6 - - ESE 1020,4 24 0,0
12.12.2018 11:00:00 6,8 4,8 - - 11 6 - - E 1020,8 19 0,0
12.12.2018 10:00:00 6,2 5,1 - - 5 3 - - SE 1020,9 16 0,0
12.12.2018 09:00:00 5,8 5,0 8,2 10,0 5 3 - - ENE 1020,8 12 0,0
12.12.2018 08:00:00 5,8 5,4 - - 8 4 - - ESE 1020,5 13 0,0
12.12.2018 07:00:00 4,0 3,8 - - 5 3 - - ENE 1020,4 6 0,0
12.12.2018 06:00:00 3,6 3,0 - - 8 4 - - NE 1020,2 7 0,0
12.12.2018 05:00:00 5,5 4,9 - - 9 5 - - ESE 1020,1 16 0,0
12.12.2018 04:00:00 6,3 4,7 - - 4 2 - - ESE 1020,2 19 0,0
12.12.2018 03:00:00 7,2 5,4 - - 9 5 - - ESE 1020,2 23 0,0
12.12.2018 02:00:00 7,4 5,5 - - 8 4 - - E 1020,5 27 0,0
12.12.2018 01:00:00 7,6 5,6 - - 9 5 - - ESE 1020,8 27 0,0
12.12.2018 00:00:00 7,5 5,7 - - 9 5 - - ESE 1020,9 22 0,0
11.12.2018 23:00:00 7,4 5,7 - - 11 6 - - ESE 1020,6 19 0,0
11.12.2018 22:00:00 7,5 5,9 - - 9 5 - - E 1020,8 14 0,0
11.12.2018 21:00:00 7,8 6,2 - - 13 7 - - ESE 1020,9 14 0,0
11.12.2018 20:00:00 7,9 6,6 - - 11 6 - - ESE 1020,9 11 0,0
11.12.2018 19:00:00 8,0 6,6 - - 9 5 - - E 1021,0 7 0,0
11.12.2018 18:00:00 8,1 6,4 - - 8 4 - - E 1021,1 16 0,0
11.12.2018 17:00:00 8,2 6,4 - - 9 5 - - ESE 1021,1 16 0,0
11.12.2018 16:00:00 8,3 6,1 - - 8 4 - - ESE 1021,4 21 0,0
11.12.2018 15:00:00 8,3 6,3 - - 5 3 - - ESE 1022,0 18 -
11.12.2018 14:00:00 8,5 6,4 - - 5 3 - - SE 1022,6 22 0,0
11.12.2018 13:00:00 8,5 6,3 - - 4 2 - - SE 1023,2 21 0,0
11.12.2018 12:00:00 8,3 6,3 - - 5 3 - - SE 1023,7 22 0,0
11.12.2018 11:00:00 7,3 6,1 - - 8 4 - - NE 1024,3 10 0,0
11.12.2018 10:00:00 6,7 6,3 - - 5 3 - - E 1024,9 8 0,0
11.12.2018 09:00:00 5,7 5,4 8,2 10,0 2 1 - - E 1025,1 6 0,0
11.12.2018 08:00:00 5,4 5,1 - - 5 3 - - ENE 1025,1 4,2 0,0
11.12.2018 07:00:00 5,5 5,2 - - 5 3 - - NE 1025,0 4,5 0,0
11.12.2018 06:00:00 5,3 4,9 - - 4 2 - - NE 1025,2 5 0,0
11.12.2018 05:00:00 5,3 5,1 - - 5 3 - - NE 1025,7 5 0,0
11.12.2018 04:00:00 4,9 4,7 - - 0 0 - - N 1025,9 10 0,0
11.12.2018 03:00:00 4,5 4,4 - - 0 0 - - N 1026,4 14 0,0
11.12.2018 02:00:00 4,1 4,1 - - 2 1 - - E 1026,6 12 0,0
11.12.2018 01:00:00 3,2 3,1 - - 2 1 - - W 1027,2 11 0,0
11.12.2018 00:00:00 2,6 2,4 - - 2 1 - - NNE 1028,0 8 0,0
10.12.2018 23:00:00 2,4 1,7 - - 2 1 - - NW 1028,5 5 0,0
10.12.2018 22:00:00 4,4 3,9 - - 2 1 - - NW 1028,4 15 0,0
10.12.2018 21:00:00 4,9 4,3 - - 4 2 - - W 1028,1 16 0,0
10.12.2018 20:00:00 5,3 4,0 - - 4 2 - - WNW 1028,4 20 0,0
10.12.2018 19:00:00 5,8 4,6 - - 2 1 - - S 1028,5 30 0,0
10.12.2018 18:00:00 6,3 4,7 - - 0 0 - - N 1028,8 23 0,0
10.12.2018 17:00:00 7,0 4,8 - - 2 1 - - W 1028,9 29 0,0
10.12.2018 16:00:00 7,8 4,9 - - 2 1 - - SSW 1028,6 30 0,0
10.12.2018 15:00:00 8,7 5,0 - - 8 4 - - WSW 1028,5 30 0,0
10.12.2018 14:00:00 9,0 5,3 - - 11 6 - - W 1028,5 28 0,0
10.12.2018 13:00:00 8,6 5,4 - - 13 7 - - W 1028,3 30 0,0
10.12.2018 12:00:00 8,1 5,1 - - 13 7 - - W 1029,0 30 0,0
10.12.2018 11:00:00 7,7 4,9 - - 11 6 - - W 1028,8 30 0,0
10.12.2018 10:00:00 7,1 4,6 - - 15 8 - - W 1028,5 30 0,0
10.12.2018 09:00:00 5,9 4,8 8,5 10,0 9 5 - - WSW 1028,5 30 0,0
10.12.2018 08:00:00 4,8 3,5 - - 8 4 - - WNW 1027,6 25 0,0
10.12.2018 07:00:00 5,5 4,1 - - 5 3 - - SW 1027,3 35 0,0
10.12.2018 06:00:00 5,3 3,6 - - 4 2 - - SW 1027,0 30 0,0
10.12.2018 05:00:00 6,7 4,2 - - 5 3 - - SW 1026,3 40 0,0
10.12.2018 04:00:00 7,5 4,3 - - 4 2 - - WNW 1026,0 40 0,0
10.12.2018 03:00:00 8,4 5,0 - - 21 11 - - W 1025,2 28 0,0
10.12.2018 02:00:00 8,1 4,9 - - 13 7 - - W 1025,0 35 0,0
10.12.2018 01:00:00 8,3 4,7 - - 16 9 - - W 1024,6 35 0,0
10.12.2018 00:00:00 8,0 4,8 - - 16 9 - - W 1024,1 40 0,0
09.12.2018 23:00:00 7,8 4,5 - - 18 10 - - W 1023,1 40 0,0
09.12.2018 22:00:00 7,6 4,9 - - 13 7 - - W 1022,8 35 0,0
09.12.2018 21:00:00 7,5 4,8 - - 15 8 - - W 1022,2 40 0,0
09.12.2018 20:00:00 8,2 4,6 - - 15 8 - - W 1021,7 45 0,0
09.12.2018 19:00:00 8,2 4,7 - - 13 7 - - WNW 1021,0 40 0,0
09.12.2018 18:00:00 8,7 5,1 - - 16 9 - - W 1019,9 40 0,0
09.12.2018 17:00:00 8,7 5,2 - - 11 6 - - W 1018,7 40 0,0
09.12.2018 16:00:00 8,5 4,8 - - 13 7 - - W 1017,6 40 0,0
09.12.2018 15:00:00 9,2 5,2 - - 26 14 - - W 1016,5 45 0,0
09.12.2018 14:00:00 10,0 4,8 - - 26 14 46 25 WNW 1014,7 27 0,0
09.12.2018 13:00:00 10,2 5,2 - - 26 14 46 25 WNW 1013,0 24 0,0
09.12.2018 12:00:00 10,6 5,3 - - 18 10 - - WNW 1012,2 45 0,0
09.12.2018 11:00:00 9,7 5,8 - - 16 9 - - W 1011,1 55 0,0
09.12.2018 10:00:00 9,6 5,9 - - 16 9 - - W 1009,1 40 0,0
09.12.2018 09:00:00 9,2 6,4 8,7 10,0 13 7 - - W 1007,4 19 0,0
09.12.2018 08:00:00 9,1 6,2 - - 16 9 - - W 1005,3 50 0,0
09.12.2018 07:00:00 9,3 6,5 - - 21 11 - - W 1003,0 16 0,0
09.12.2018 06:00:00 8,9 6,5 - - 22 12 - - W 1001,3 60 0,2
09.12.2018 05:00:00 8,4 6,9 - - 24 13 - - W 1000,4 19 0,4
09.12.2018 04:00:00 8,0 6,9 - - 21 11 50 27 WSW 999,5 5 1,0
09.12.2018 03:00:00 8,5 5,7 - - 29 16 57 31 W 999,1 22 0,0
09.12.2018 02:00:00 8,4 5,7 - - 29 16 63 34 W 999,4 23 0,2
09.12.2018 01:00:00 8,4 5,1 - - 28 15 52 28 W 999,3 24 0,0
09.12.2018 00:00:00 7,9 5,4 - - 28 15 48 26 W 999,2 21 0,4
08.12.2018 23:00:00 8,7 5,1 - - 28 15 46 25 W 999,4 24 0,0
08.12.2018 22:00:00 8,6 5,2 - - 28 15 50 27 W 999,0 30 0,2
08.12.2018 21:00:00 8,2 6,2 - - 18 10 52 28 W 999,0 12 1,0
08.12.2018 20:00:00 8,5 5,6 - - 22 12 46 25 W 998,6 25 0,2
08.12.2018 19:00:00 8,7 6,3 - - 21 11 46 25 W 999,0 5 0,2
08.12.2018 18:00:00 9,4 5,8 - - 22 12 48 26 W 998,4 19 0,0
08.12.2018 17:00:00 10,6 5,9 - - 26 14 57 31 WSW 997,9 15 0,0
08.12.2018 16:00:00 10,8 6,3 - - 31 17 68 37 W 998,1 15 0,0
08.12.2018 15:00:00 11,0 7,7 - - 29 16 57 31 WSW 997,8 8 0,0
08.12.2018 14:00:00 12,3 8,0 - - 31 17 59 32 WSW 998,7 26 0,0
08.12.2018 13:00:00 11,7 8,8 - - 28 15 54 29 WSW 1000,0 28 0,2
08.12.2018 12:00:00 13,2 7,9 - - 13 7 - - SW 1001,1 - 0,0
08.12.2018 11:00:00 10,8 7,2 - - 16 9 - - WSW 1003,2 65 0,0
08.12.2018 10:00:00 9,3 4,7 - - 29 16 52 28 W 1004,5 25 0,0
08.12.2018 09:00:00 8,6 4,9 8,7 10,0 29 16 52 28 W 1004,8 19 0,0
08.12.2018 08:00:00 8,1 5,0 - - 29 16 57 31 W 1005,2 30 0,0
08.12.2018 07:00:00 8,1 4,6 - - 31 17 55 30 W 1005,0 45 0,0
08.12.2018 06:00:00 8,4 4,3 - - 31 17 59 32 W 1004,5 29 0,0
08.12.2018 05:00:00 8,5 4,5 - - 37 20 68 37 W 1003,7 27 0,0
08.12.2018 04:00:00 8,3 4,4 - - 34 18 63 34 W 1003,4 35 0,0
08.12.2018 03:00:00 8,1 5,0 - - 35 19 65 35 W 1003,4 28 0,0
08.12.2018 02:00:00 8,7 5,0 - - 34 18 70 38 W 1002,9 11 0,0
08.12.2018 01:00:00 8,5 4,8 - - 31 17 59 32 WSW 1002,9 25 0,2
08.12.2018 00:00:00 8,4 4,3 - - 28 15 55 30 WSW 1003,1 24 0,0
07.12.2018 23:00:00 8,3 4,0 - - 26 14 57 31 WSW 1003,2 20 0,0
07.12.2018 22:00:00 8,2 3,7 - - 35 19 63 34 W 1003,0 26 0,0
07.12.2018 21:00:00 7,6 3,9 - - 34 18 57 31 W 1002,7 26 0,0
07.12.2018 20:00:00 7,2 4,0 - - 21 11 46 25 WSW 1003,7 17 0,2
07.12.2018 19:00:00 6,9 3,3 - - 21 11 55 30 WSW 1003,8 6 0,2
07.12.2018 18:00:00 6,0 2,4 - - 22 12 - - W 1003,3 50 0,0
07.12.2018 17:00:00 5,6 2,8 - - 22 12 50 27 W 1002,9 45 0,2
07.12.2018 16:00:00 7,6 2,0 - - 15 8 - - WSW 1001,9 26 0,0
07.12.2018 15:00:00 7,4 1,3 - - 24 13 57 31 W 1001,9 35 0,0
07.12.2018 14:00:00 7,6 3,1 - - 26 14 55 30 W 1001,7 27 0,0
07.12.2018 13:00:00 8,5 3,1 - - 26 14 48 26 W 1001,0 40 0,0
07.12.2018 12:00:00 8,4 3,4 - - 21 11 - - W 1000,8 27 0,0
07.12.2018 11:00:00 9,2 4,4 - - 16 9 - - W 1000,8 24 0,0
07.12.2018 10:00:00 8,5 5,3 - - 16 9 - - W 1000,6 45 0,2
07.12.2018 09:00:00 9,0 7,0 8,7 10,0 11 6 - - WSW 999,8 22 0,0
07.12.2018 08:00:00 10,1 8,5 - - 21 11 52 28 WSW 999,4 25 0,4
07.12.2018 07:00:00 12,0 11,5 - - 9 5 - - SW 998,5 19 0,6
07.12.2018 06:00:00 11,7 11,3 - - 4 2 - - S 999,4 5 1,4
07.12.2018 05:00:00 12,1 11,4 - - 5 3 - - SSW 1000,9 6 1,4
07.12.2018 04:00:00 12,5 11,5 - - 11 6 - - SSW 1002,4 70 1,0
07.12.2018 03:00:00 13,0 11,5 - - 13 7 - - SSW 1003,8 9 0,2
07.12.2018 02:00:00 14,1 11,2 - - 11 6 - - SSW 1004,9 75 0,0
07.12.2018 01:00:00 12,6 11,4 - - 5 3 - - S 1006,1 55 0,0
07.12.2018 00:00:00 12,6 11,2 - - 9 5 55 30 S 1007,4 35 0,0
06.12.2018 23:00:00 12,8 11,0 - - 5 3 - - S 1008,7 75 0,0
06.12.2018 22:00:00 12,7 10,8 - - 5 3 - - SSW 1009,5 80 0,0
06.12.2018 21:00:00 12,6 10,9 - - 4 2 - - SSW 1010,4 45 0,0
06.12.2018 20:00:00 12,8 11,1 - - 4 2 - - SSW 1011,2 45 0,0
06.12.2018 19:00:00 12,4 10,9 - - 2 1 - - SSW 1011,6 50 0,0
06.12.2018 18:00:00 12,3 10,8 - - 2 1 - - SSW 1011,4 75 0,0
06.12.2018 17:00:00 12,8 10,7 - - 4 2 - - S 1011,3 75 0,0
06.12.2018 16:00:00 13,0 10,7 - - 4 2 - - SSW 1011,3 75 0,0
06.12.2018 15:00:00 13,4 10,9 - - 5 3 - - SW 1011,6 75 0,0
06.12.2018 14:00:00 13,7 10,9 - - 8 4 - - SW 1011,2 60 0,0
06.12.2018 13:00:00 12,8 10,7 - - 8 4 - - SSW 1012,0 70 0,0

tt = temperature
td = dewpoint
tt -20cm = temperature -20cm
tt -100cm = temperature -100cm
ff = wind speed
fx = gusts
dd = wind direction
ppp = reduced air pressure
vv = visibility
rr = precipitation

Next stations